Flag for China Weather past 2 weeks in Dalian, Liaoning, China

Now
27 °F

Sunny.


Feels Like: 27 °F
Forecast: 28 / 38 °F
Wind: 1 mph from North

Location: Dalian Airport

Current Time: Feb 28, 2015 at 7:01:15 AM

Latest Report: Feb 28, 2015 at 6:30 AM


Visibility: 10 mi

Pressure: 30.36 "Hg

Humidity: 74%

Dew point: 19 °F

Location of DalianLocation

Historic Weather in Dalian — Graph

°F

Dalian temperature yesterday

Maximum temperature yesterday: 30 °F (at 11:00 AM)
Minimum temperature yesterday: 25 °F (at 4:00 AM)
Average temperature yesterday: 27 °F

Past Weeks' High & Low Weather Summary

 TemperatureHumidityPressure
High55 °F (Feb 14, 2:00 PM)100% (Feb 15, 2:30 AM)30.54 "Hg (Feb 15, 2:30 AM)
Low19 °F (Feb 13, 6:00 AM)19% (Feb 19, 2:30 PM)29.92 "Hg (Feb 14, 1:00 PM)
Average34 °F68%30.16 "Hg
* Reported Feb 13 6:00 AM — Feb 28 6:00 AM, Dalian, Weather by CustomWeather, © 2015

Note: Actual official high and low records may vary slightly from our data, if they occured in-between our weather recording intervals... More about our weather records

Advertising

Dalian weather history for previous 24 hours

 ConditionsComfort  
Time TempWeatherWind HumidityBarometerVisibility
6:00 AM
Sat, Feb 28
27 °FClear.1 mph74%30.36 "Hg10 mi
5:30 AM27 °FClear.1 mph74%30.39 "Hg10 mi
5:00 AM27 °FClear.3 mph74%30.39 "Hg10 mi
4:30 AM27 °FClear.3 mph74%30.39 "Hg10 mi
4:00 AM27 °FClear.3 mph69%30.42 "Hg10 mi
3:30 AM27 °FClear.3 mph74%30.42 "Hg10 mi
3:00 AM27 °FClear.3 mph74%30.45 "Hg10 mi
2:30 AM27 °FClear.3 mph74%30.45 "Hg10 mi
2:00 AM27 °FClear.3 mph69%30.45 "Hg10 mi
1:30 AM27 °FClear.3 mph69%30.45 "Hg10 mi
1:00 AM27 °FClear.3 mph69%30.45 "Hg10 mi
12:30 AM27 °FClear.1 mph69%30.45 "Hg10 mi
12:00 AM27 °FPassing clouds.3 mph69%30.45 "HgN/A
11:30 PM
Fri, Feb 27
27 °FPassing clouds.3 mph69%30.45 "HgN/A
11:00 PM27 °FClear.3 mph69%30.45 "Hg10 mi
10:30 PM27 °FPassing clouds.3 mph69%30.48 "HgN/A
10:00 PM27 °FClear.6 mph69%30.48 "Hg10 mi
9:30 PM27 °FClear.6 mph69%30.48 "Hg10 mi
9:00 PM27 °FPassing clouds.3 mph69%30.48 "HgN/A
8:30 PM27 °FPassing clouds.3 mph64%30.48 "HgN/A
8:00 PM27 °FClear.6 mph64%30.48 "Hg10 mi
7:30 PM27 °FPassing clouds.3 mph64%30.48 "HgN/A
7:00 PM27 °FClear.8 mph64%30.48 "Hg10 mi
6:30 PM28 °FPassing clouds.8 mph55%30.48 "HgN/A
6:00 PM27 °FClear.8 mph64%30.51 "Hg10 mi
5:30 PM28 °FPassing clouds.8 mph59%30.48 "HgN/A
5:00 PM28 °FPassing clouds.8 mph51%30.48 "HgN/A
4:30 PM30 °FPassing clouds.10 mph43%30.48 "HgN/A
4:00 PM30 °FPassing clouds.8 mph43%30.48 "HgN/A
3:30 PM30 °FPassing clouds.8 mph47%30.48 "HgN/A
3:00 PM30 °FPassing clouds.8 mph47%30.51 "HgN/A
2:30 PM30 °FPassing clouds.10 mph47%30.51 "HgN/A
2:00 PM30 °FPassing clouds.10 mph43%30.51 "HgN/A
1:30 PM30 °FPassing clouds.10 mph47%30.51 "HgN/A
1:00 PM30 °FPassing clouds.10 mph47%30.51 "HgN/A
12:30 PM30 °FPassing clouds.8 mph47%30.51 "HgN/A
11:30 AM30 °FPassing clouds.8 mph43%30.54 "HgN/A
11:00 AM30 °FSunny.10 mph43%30.54 "Hg10 mi
10:30 AM28 °FPassing clouds.13 mph40%30.54 "HgN/A
10:00 AM28 °FSunny.10 mph43%30.51 "Hg10 mi
9:30 AM27 °FPassing clouds.10 mph46%30.51 "HgN/A
9:00 AM27 °FPassing clouds.8 mph46%30.51 "HgN/A
8:30 AM27 °FSunny.10 mph46%30.54 "Hg10 mi
8:00 AM27 °FPassing clouds.10 mph46%30.54 "HgN/A
7:30 AM25 °FPassing clouds.8 mph46%30.51 "HgN/A
7:00 AM25 °FPassing clouds.10 mph46%30.51 "HgN/A
Weather by CustomWeather, © 2015

See weather overviewHow to use our weather pages